TheGetRank SiteMap Page 6387
Home 6337 6338 6339 6340 6341 6342 6343 6344 6345 6346 6347 6348 6349 6350 6351 6352 6353 6354 6355 6356 6357 6358 6359 6360 6361 6362 6363 6364 6365 6366 6367 6368 6369 6370 6371 6372 6373 6374 6375 6376 6377 6378 6379 6380 6381 6382 6383 6384 6385 6386 6387 6388 6389 6390 6391 6392 6393 6394 6395 6396 6397 6398 6399 6400 6401 6402 6403 6404 6405 6406 6407 6408 6409 6410 6411 6412 6413 6414 6415 6416 6417 6418 6419 6420 6421 6422 6423 6424 6425 6426 6427 6428 6429 6430 6431 6432 6433 6434 6435 6436 6437
S.NO. Website Pagerank Alexa Rank Last Updated
6386000 historynorthgrenville.ca 0 No Rank 2012-03-13 04:26:34
6386001 historyofasbestos.org 0 No Rank 2012-03-13 04:26:38
6386002 historyofballooning.be 0 No Rank 2012-03-13 04:26:41
6386003 historyofbc.com 0 No Rank 2012-03-13 04:26:36
6386004 historyofboston.com 0 No Rank 2012-03-13 04:26:41
6386005 historyofbrazil.org 0 No Rank 2012-03-13 04:26:46
6386006 historyofchess.net 0 No Rank 2012-03-13 04:26:51
6386007 historyofchristianity.org 0 No Rank 2012-03-13 04:26:48
6386008 historyofcommunism.org 0 No Rank 2012-03-13 04:26:56
6386009 historyofdentistry.org 0 No Rank 2012-03-12 19:22:03
6386010 historyofelectronics.com 0 11020126 2012-03-13 04:26:58
6386011 historyoffirefighting.com 0 No Rank 2012-03-13 04:27:00
6386012 historyofforensics.com 0 21599482 2012-03-13 04:27:02
6386013 historyoffthepage.co.uk 0 8777683 2012-03-13 04:27:04
6386014 historyofgaming.de 0 15571637 2012-03-13 04:27:08
6386015 historyofholography.com 0 10903098 2012-03-13 04:27:11
6386016 historyofinternet.maxximum.org 0 1077754 2012-03-13 04:27:16
6386017 historyofjamaicafromitsdiscoveryresearchlibrary.toyvehiclestore.com 0 No Rank 2012-03-13 04:27:12
6386018 historyofmadness.ca 0 9844018 2012-03-13 04:27:21
6386019 historyofmarijuana.org 0 No Rank 2012-03-13 04:27:29
6386020 historyofmie.co.uk 0 No Rank 2012-03-13 04:27:26
6386021 historyofneonsigns.com 0 No Rank 2012-03-13 04:27:33
6386022 historyofpedagogy.ru 0 21063558 2012-03-11 11:05:03
6386023 historyofpeebles.com 0 No Rank 2012-03-13 04:27:29
6386024 historyofpia.com 0 255698 2012-03-13 04:27:34
6386025 historyofplymouth.co.uk 0 11721422 2012-03-13 04:27:40
6386026 historyofprivacy.net 0 No Rank 2012-03-11 11:05:01
6386027 historyofpsych.org 0 16671386 2012-03-11 11:05:03
6386028 historyofpsychology.ru 0 No Rank 2012-03-13 04:27:39
6386029 historyofracing.com.au 0 21560331 2012-03-13 04:27:44
6386030 historyofrecovery.com 0 No Rank 2012-03-10 20:35:09
6386031 historyofshoes.net 0 27402692 2012-03-11 11:05:03
6386032 historyofsolarpower.com 0 8133731 2012-03-13 04:27:47
6386033 historyofstones.sitew.org 0 5168327 2012-03-13 04:27:57
6386034 historyofthechurch.smart-advisor.info 0 No Rank 2012-03-13 04:28:03
6386035 historyoftheland.com 0 No Rank 2012-03-13 04:28:01
6386036 historyofthesnowman.com 0 No Rank 2012-03-13 04:28:13
6386037 historyofthought.yolasite.com 0 No Rank 2012-03-13 04:28:09
6386038 historyoftrackandfield.com 0 No Rank 2012-03-13 04:28:13
6386039 historyoftruth.com 0 353524 2012-03-13 04:28:17
6386040 historyonfilm.com 0 4238532 2012-03-13 04:28:21
6386041 historyrecalls.com 0 No Rank 2012-03-13 04:28:24
6386042 historyrecord.shutterchance.com 0 146585 2012-03-13 04:28:24
6386043 historyreenactmentforum.okbb.de 0 1080569 2012-03-13 04:28:28
6386044 historyrepeatsitself.co.uk 0 No Rank 2012-03-13 04:28:31
6386045 historyrussia.ru 0 No Rank 2012-03-13 04:28:31
6386046 historyslovari.ru 0 No Rank 2012-03-11 00:20:57
6386047 historysoap.com 0 18697014 2012-03-13 04:28:38
6386048 historyspace.co.uk 0 No Rank 2012-03-13 04:28:43
6386049 historytattoos.hotmail.ru 0 161920 2012-03-13 04:28:45
6386050 historytheword.globered.com 0 109664 2012-03-13 04:28:57
6386051 historytimeline.toforge.com 0 769258 2012-03-13 04:28:59
6386052 historytranscription.com 0 No Rank 2012-03-13 04:29:03
6386053 historytravelguide.com 0 No Rank 2012-03-13 04:29:01
6386054 historytravelonline.com 0 No Rank 2012-03-13 04:29:07
6386055 historyupclose.com 0 18704563 2012-03-13 04:29:10
6386056 historyvallejo.obolog.com 0 7212 2012-03-13 04:29:16
6386057 historyvt.narod.ru 0 8436786 2012-03-13 04:29:11
6386058 historywithhilt.com 0 No Rank 2012-03-13 04:29:17
6386059 historyworkshop.org.uk 0 1852926 2012-03-13 04:29:23
6386060 histotech.com.br 0 No Rank 2012-03-13 04:29:31
6386061 histpricion.ru 0 13277730 2012-03-13 04:29:41
6386062 histrasbourg.com 0 10658195 2012-03-13 04:29:52
6386063 histreet.net 0 No Rank 2012-03-13 04:29:53
6386064 histrengthbolt.com 0 No Rank 2012-03-13 04:30:00
6386065 histriamall.com.hr 0 No Rank 2012-03-13 04:30:05
6386066 histriaweb.eu 0 No Rank 2012-03-13 04:30:10
6386067 histrion.org 0 9642427 2012-03-13 04:30:08
6386068 histrion.sk 0 No Rank 2012-03-13 04:30:14
6386069 histrionics.org 0 No Rank 2012-03-13 04:30:10
6386070 histriotheater.com 0 25890743 2012-03-13 04:30:13
6386071 histroman.howhow.ru 0 13319992 2012-03-13 04:30:18
6386072 histronic.com 0 No Rank 2012-03-13 04:30:20
6386073 histugaya.xhblog.com 0 383642 2012-03-13 04:30:24
6386074 histvarld.historiska.se 0 861930 2012-03-13 04:30:26
6386075 histwr.fc2web.com 0 3156 2012-03-13 04:30:28
6386076 histyle.com.au 0 No Rank 2012-03-13 04:30:30
6386077 histyme.com 0 No Rank 2012-03-14 01:22:26
6386078 hisui-fukushi.com 0 No Rank 2012-03-13 04:30:36
6386079 hisui.ikora.tv 0 188563 2012-03-13 04:30:42
6386080 hisui.org 0 No Rank 2012-03-13 04:30:46
6386081 hisuisushi.com 0 No Rank 2012-03-14 18:11:52
6386082 hisun-battery.com 0 No Rank 2012-03-14 18:12:34
6386083 hisun-china.net 0 No Rank 2012-03-14 18:12:51
6386084 hisun.se 0 No Rank 2012-03-14 18:12:55
6386085 hisunweb.com 0 No Rank 2012-03-14 18:13:03
6386086 hisverjus.de 0 No Rank 2012-03-14 18:13:08
6386087 hisvineyard.2ya.com 0 399092 2012-03-14 18:13:40
6386088 hisway.org 0 11848444 2012-03-14 18:13:53
6386089 hisways.org 0 15085052 2012-03-14 18:13:45
6386090 hiswayschurch.org 0 No Rank 2012-03-14 18:14:10
6386091 hiswayspecialtybaits.com 0 No Rank 2012-03-14 18:14:15
6386092 hiswebtest.com 0 No Rank 2012-03-09 19:31:13
6386093 hiswill.info 0 No Rank 2012-03-14 18:14:22
6386094 hiswingenterprises.com 0 No Rank 2012-03-14 18:14:38
6386095 hiswoe.co.uk 0 No Rank 2012-03-09 12:42:02
6386096 hisworldtraders.com 0 No Rank 2012-03-14 18:15:19
6386097 hisyamadnan.com 0 No Rank 2012-03-14 18:15:13
6386098 hisyndicate.com 0 No Rank 2012-03-14 17:47:31
6386099 hisyoko.jp 0 No Rank 2012-03-15 02:11:43
6386100 hisystem.net 0 No Rank 2012-03-14 18:16:09
6386101 hisystems.de 0 7305141 2012-03-14 18:16:01
6386102 hisystems.net 0 5394560 2012-03-13 10:40:58
6386103 hisz.hu 0 No Rank 2012-03-14 17:47:47
6386104 hiszpania-apartamenty.pl 0 755519 2012-03-14 18:16:19
6386105 hiszpania.biz 0 No Rank 2012-03-14 18:16:15
6386106 hiszpania.endi.pl 0 2640053 2012-03-10 12:36:05
6386107 hiszpania.homer.pl 0 609983 2012-03-14 17:48:06
6386108 hiszpania.travelon.pl 0 977322 2012-03-14 17:48:15
6386109 hiszpania365.pl 0 No Rank 2012-03-14 17:48:21
6386110 hiszpaniaconsulting.com 0 10013054 2012-03-14 18:16:57
6386111 hiszpanski.org.pl 0 4497265 2012-03-14 18:17:11
6386112 hiszpanskistyl.com.pl 0 21026169 2012-03-14 18:17:46
6386113 hit-air.es 0 9944203 2012-03-14 17:49:08
6386114 hit-auto.cars.bg 0 35995 2012-03-14 18:18:20
6386115 hit-auto.jp 0 No Rank 2012-03-14 18:18:44
6386116 hit-body.com 0 No Rank 2012-03-14 18:18:27
6386117 hit-cert.org 0 No Rank 2012-03-14 18:18:39
6386118 hit-chart.com 0 5102493 2012-03-14 18:18:48
6386119 hit-design.biz 0 17319363 2012-03-14 18:18:51
6386120 hit-diets.blogspot.com 0 No Rank 2012-03-11 05:44:52
6386121 hit-eindhoven.nl 0 No Rank 2012-03-14 18:19:06
6386122 hit-electronic.com 0 5103261 2012-03-14 18:19:11
6386123 hit-fashion.com 0 No Rank 2012-03-14 18:19:31
6386124 hit-file.ru 0 No Rank 2012-03-14 18:19:29
6386125 hit-garden.ru 0 No Rank 2012-03-14 01:22:25
6386126 hit-hebdo.com 0 26510888 2012-03-14 18:19:35
6386127 hit-i.com 0 No Rank 2012-03-14 18:19:54
6386128 hit-interior.co.jp 0 4376981 2012-03-14 18:20:09
6386129 hit-interior.com 0 157264 2012-03-14 18:20:04
6386130 hit-karlsruhe.de 0 1664548 2012-03-14 18:20:10
6386131 hit-kino.com 0 8695131 2012-03-14 18:20:18
6386132 hit-kokunai.com 0 No Rank 2012-03-14 18:20:23
6386133 hit-maker.biz 0 No Rank 2012-03-14 17:50:44
6386134 hit-man.spilleland.com 0 1832741 2012-03-14 18:20:25
6386135 hit-market.ru 0 13723032 2012-03-09 19:31:07
6386136 hit-megh.com 0 No Rank 2012-03-14 18:20:28
6386137 hit-melody.com 0 No Rank 2012-03-14 18:20:36
6386138 hit-men.co.nz 0 No Rank 2012-03-14 18:20:39
6386139 hit-office.com 0 14782098 2012-03-11 04:52:37
6386140 hit-pcm.de 0 21347914 2012-03-14 18:21:24
6386141 hit-podarki.ru 0 No Rank 2012-03-14 18:21:31
6386142 hit-radioantenneniedersachsen.podspot.de 0 288549 2012-03-14 17:51:14
6386143 hit-rock-bottom.com 0 No Rank 2012-03-14 18:21:35
6386144 hit-rock.ru 0 No Rank 2012-03-14 17:51:31
6386145 hit-shohin.guide-net.info 0 1911297 2012-03-14 17:51:37
6386146 hit-suonerie-loghi.com 0 17130454 2012-03-14 18:21:38
6386147 hit-telechargement.com 0 21523201 2012-03-14 18:21:39
6386148 hit-tokachi.com 0 No Rank 2012-03-14 18:21:59
6386149 hit-training.net 0 18444188 2012-03-14 18:22:09
6386150 hit-trainings.de 0 No Rank 2012-03-14 18:22:10
6386151 hit-web.fr 0 16842291 2012-03-14 18:22:14
6386152 hit-your-boss.games1234.net 0 9251976 2012-03-14 17:55:28
6386153 hit.23du.com 0 1903810 2012-03-14 18:22:32
6386154 hit.arenalive.no 0 No Rank 2012-03-14 18:22:25
6386155 hit.at 0 No Rank 2012-03-14 17:52:23
6386156 hit.blog.banjig.net 0 78096 2012-03-14 18:22:57
6386157 hit.co.th 0 No Rank 2012-03-14 18:23:08
6386158 hit.com.do 0 No Rank 2012-03-14 17:52:32
6386159 hit.dhmsl.jp 0 No Rank 2012-03-14 17:52:45
6386160 hit.free-photograph.net 0 538809 2012-03-14 18:23:06
6386161 hit.igrite.com 0 692482 2012-03-14 17:53:12
6386162 hit.jogosloucos.com.br 0 43442 2012-03-14 18:23:17
6386163 hit.net.my 0 19023820 2012-03-14 18:23:31
6386164 hit.net.tr 0 21349626 2012-03-14 17:53:46
6386165 hit.scouting.nl 0 1269968 2012-03-14 18:23:37
6386166 hit.ucoz.kz 0 181 2012-03-14 18:24:01
6386167 hit126b.netfirms.com 0 3415 2012-03-14 18:27:30
6386168 hit140t.netfirms.com 0 3415 2012-03-14 18:30:24
6386169 hit185t.netfirms.com 0 3415 2012-03-14 18:30:40
6386170 hit24.org 0 23264349 2012-03-14 18:28:13
6386171 hit2pass.com 0 No Rank 2012-03-14 18:28:28
6386172 hit30.com 0 No Rank 2012-03-14 18:29:21
6386173 hit324g.netfirms.com 0 3415 2012-03-14 18:32:51
6386174 hit327k.netfirms.com 0 3415 2012-03-14 17:58:05
6386175 hit378b.netfirms.com 0 3415 2012-03-14 18:33:05
6386176 hit38-38.com 0 No Rank 2012-03-14 18:30:28
6386177 hit398i.netfirms.com 0 3415 2012-03-14 18:33:58
6386178 hit4you.info 0 No Rank 2012-03-14 18:32:59
6386179 hit5.sclub.com.tw 0 67636 2012-03-14 17:55:23
6386180 hit551d.netfirms.com 0 3415 2012-03-14 17:58:52
6386181 hit584b.netfirms.com 0 3415 2012-03-14 18:36:33
6386182 hit66.com 0 20285552 2012-03-14 18:33:06
6386183 hit662t.netfirms.com 0 3415 2012-03-14 18:00:21
6386184 hit707g.netfirms.com 0 3415 2012-03-14 18:37:30
6386185 hit720b.netfirms.com 0 3415 2012-03-14 18:37:39
6386186 hit734n.netfirms.com 0 3415 2012-03-14 18:37:58
6386187 hit740i.netfirms.com 0 3415 2012-03-14 18:40:41
6386188 hit760m.netfirms.com 0 3415 2012-03-14 18:40:02
6386189 hit766k.netfirms.com 0 3415 2012-03-14 18:01:21
6386190 hit769d.netfirms.com 0 3415 2012-03-14 18:43:20
6386191 hit8050c.chinaicmart.com 0 285869 2012-03-14 18:41:00
6386192 hit822d.netfirms.com 0 3415 2012-03-14 18:43:48
6386193 hita-ayu.com 0 No Rank 2012-03-14 18:44:30
6386194 hita-crane.com 0 No Rank 2012-03-14 18:43:39
6386195 hita-yoroduya.com 0 No Rank 2012-03-14 01:22:25
6386196 hita.tw 0 No Rank 2012-03-14 18:43:43
6386197 hita.us 0 10148255 2012-03-14 18:43:49
6386198 hitac.nikki-k.jp 0 1565019 2012-03-14 18:44:01
6386199 hitachi-computerproducts.fr 0 No Rank 2012-03-14 18:44:27
6386200 hitachi-credit.com.sg 0 No Rank 2012-03-14 18:44:15
6386201 hitachi-db3dl.com 0 No Rank 2012-03-14 18:45:24
6386202 hitachi-hotel.co.jp 0 No Rank 2012-03-14 18:48:31
6386203 hitachi-j.com 0 No Rank 2012-03-14 18:48:50
6386204 hitachi-kankyo.jp 0 No Rank 2012-03-14 18:01:04
6386205 hitachi-polska.com 0 No Rank 2012-03-14 18:49:11
6386206 hitachi-powertools.es 0 2129532 2012-03-14 18:49:07
6386207 hitachi-shinkyu.sakura.ne.jp 0 389 2012-03-14 18:01:13
6386208 hitachi-toolregister.co.uk 0 19386529 2012-03-14 18:01:24
6386209 hitachi-tools.sk 0 15627568 2012-03-14 18:01:35
6386210 hitachi.minutemachine.com 0 339220 2012-03-14 18:01:48
6386211 hitachi.service.com 0 585955 2012-03-14 18:49:14
6386212 hitachi.washing-machine-appliance.com 0 21359442 2012-03-14 18:49:16
6386213 hitachiaircompressor.usa-bestprice.net 0 5851028 2012-03-14 18:01:58
6386214 hitachialati.rs 0 No Rank 2012-03-14 18:49:23
6386215 hitachibackup.com 0 842136 2012-03-14 18:49:19
6386216 hitachic12lsh2011s.co.cc 0 No Rank 2012-03-14 18:49:46
6386217 hitachicamcorder.org 0 No Rank 2012-03-14 18:49:38
6386218 hitachichopsaw.sawstoptablesaw.com 0 No Rank 2012-03-14 18:49:52
6386219 hitachicordlessdrilldriver.sawstoptablesaw.com 0 No Rank 2012-03-14 18:50:03
6386220 hitachidigitalmedia.com 0 642053 2012-03-14 18:50:04
6386221 hitachids18dvf3battery.info 0 No Rank 2012-03-14 18:50:36
6386222 hitachihouse.com 0 No Rank 2012-03-14 18:50:24
6386223 hitachiklima.ch 0 4498385 2012-03-14 18:50:38
6386224 hitachiklimaservisi.org 0 26749004 2012-03-12 05:00:09
6386225 hitachimagicwand.com 0 16807132 2012-03-14 18:50:41
6386226 hitachimagicwandreviews.com 0 No Rank 2012-03-14 18:50:51
6386227 hitachinaka-sc.or.jp 0 No Rank 2012-03-14 18:50:56
6386228 hitachinofj.co.jp 0 No Rank 2012-03-14 18:51:04
6386229 hitachint65ma415gaugeanglefinishnailer.wordpress.com 0 No Rank 2012-03-14 18:48:26
6386230 hitachint65ma4gaugeanglefinishnailer.blogspot.com 0 No Rank 2012-03-14 18:38:52
6386231 hitachiohtakyoho.jp 0 No Rank 2012-03-14 18:53:19
6386232 hitachiplazma.com 0 20868491 2012-03-14 18:53:32
6386233 hitachipowertools.cz 0 No Rank 2012-03-14 18:53:34
6386234 hitachipowertools.us 0 No Rank 2012-03-14 18:53:38
6386235 hitachiprojector.wordpress.com 0 No Rank 2012-03-14 12:36:30
6386236 hitachirailproject.co.uk 0 No Rank 2012-03-14 18:53:46
6386237 hitachiya-web.jp 0 No Rank 2012-03-14 18:53:46
6386238 hitaclim.com 0 No Rank 2012-03-14 18:53:52
6386239 hitaction.com 0 No Rank 2012-03-14 18:53:53
6386240 hitacurb.com 0 No Rank 2012-03-14 18:53:57
6386241 hitadsindia.com 0 No Rank 2012-03-14 18:53:59
6386242 hitagaarchery.com 0 No Rank 2012-03-14 06:36:58
6386243 hitaichi.com 0 No Rank 2012-03-14 18:54:08
6386244 hitairmalaysia.com 0 No Rank 2012-03-14 18:54:16
6386245 hitajegroups.com 0 No Rank 2012-03-11 11:05:05
6386246 hitak.com 0 No Rank 2012-03-14 18:54:18
6386247 hitakara.com 0 No Rank 2012-03-14 18:54:19
6386248 hitalarm.de 0 12504073 2012-03-14 18:54:23
6386249 hitalem.com 0 4689211 2012-03-14 18:54:29
6386250 hitali.com 0 1813963 2012-03-14 18:54:24
6386251 hitam.cn 0 No Rank 2012-03-14 18:54:34
6386252 hitam.org 0 3853210 2012-03-14 18:54:39
6386253 hitamputihmp.com 0 19300523 2012-03-11 07:14:11
6386254 hitan.com.br 0 No Rank 2012-03-14 18:54:52
6386255 hitandmiss.me 0 No Rank 2012-03-14 18:54:45
6386256 hitandmissmagazine.com.au 0 No Rank 2012-03-14 18:54:36
6386257 hitandrun.dk 0 No Rank 2012-03-14 18:55:09
6386258 hitandrun.jp 0 No Rank 2012-03-14 18:54:59
6386259 hitandrunaccidents.com 0 23537478 2012-03-14 18:55:12
6386260 hitandrungolf.edonate.uponline.com 0 2034596 2012-03-14 18:55:24
6386261 hitangandccc.com 0 No Rank 2012-03-09 19:31:10
6386262 hitaowang100.com 0 No Rank 2012-03-14 18:57:09
6386263 hitarda.com 0 26840130 2012-03-14 18:57:09
6386264 hitarkansas.org 0 No Rank 2012-03-14 18:57:03
6386265 hitarttirma.com 0 358890 2012-03-14 18:57:14
6386266 hitarttirmak.com 0 256973 2012-03-14 18:57:31
6386267 hitarusaiko.net 0 14916760 2012-03-09 19:31:13
6386268 hitas.com.vn 0 No Rank 2012-03-14 18:57:28
6386269 hitasoft.com 0 488138 2012-03-14 18:57:40
6386270 hitatenryosui.jp 0 No Rank 2012-03-14 18:57:46
6386271 hitatenryosui.sakura.ne.jp 0 389 2012-03-14 18:57:44
6386272 hitaudio.com 0 2342477 2012-03-14 18:58:31
6386273 hitautism.com 0 23200996 2012-03-14 18:59:49
6386274 hitauto.mobile.bg 0 16281 2012-03-14 19:00:18
6386275 hitautoparts.com 0 No Rank 2012-03-14 18:58:47
6386276 hitawaybaseballswingtrainer.com 0 No Rank 2012-03-14 18:59:31
6386277 hitaya.jp 0 No Rank 2012-03-13 10:40:58
6386278 hitback.com 0 No Rank 2012-03-14 19:01:29
6386279 hitball.altervista.org 0 566 2012-03-14 19:01:27
6386280 hitbashargame.hi.funpic.org 0 51763 2012-03-14 19:01:20
6386281 hitbeaute-boutique.com 0 8844373 2012-03-14 19:02:06
6386282 hitbih.com 0 22122559 2012-03-09 19:31:49
6386283 hitbul.net 0 1441245 2012-03-15 00:43:45
6386284 hitbypitch.net 0 No Rank 2012-03-14 19:02:15
6386285 hitc-uefa.com 0 No Rank 2012-03-14 19:02:42
6386286 hitc.co.za 0 No Rank 2012-03-14 19:02:33
6386287 hitc.org.uk 0 No Rank 2012-03-14 19:02:49
6386288 hitcf.com 0 No Rank 2012-03-10 12:36:06
6386289 hitch-cock.homepage.dk 0 587099 2012-03-14 19:11:26
6386290 hitch.co.il 0 No Rank 2012-03-14 19:11:26
6386291 hitchamburyhomes.co.uk 0 No Rank 2012-03-14 19:04:02
6386292 hitchannel.de 0 No Rank 2012-03-14 19:04:35
6386293 hitchautomotive.com 0 No Rank 2012-03-14 19:04:29
6386294 hitchcockautogroup.com 0 No Rank 2012-03-14 19:05:05
6386295 hitchcockchiropractic.com 0 No Rank 2012-03-14 19:05:10
6386296 hitchcockdental.com 0 15166367 2012-03-14 19:05:31
6386297 hitchcocknotary.com 0 No Rank 2012-03-14 19:05:52
6386298 hitchdcinema.com 0 No Rank 2012-03-14 19:08:33
6386299 hitchdepot.qpg.com 0 709939 2012-03-14 19:11:33
6386300 hitchdirect.com 0 No Rank 2012-03-14 19:08:49
6386301 hitched.co.nz 0 No Rank 2012-03-11 00:21:00
6386302 hitchedinbali.com 0 No Rank 2012-03-14 19:08:58
6386303 hitchedinsturgis.com 0 No Rank 2012-03-14 19:09:15
6386304 hitchedproductions.com.au 0 No Rank 2012-03-14 19:09:10
6386305 hitchedweddingband.co.uk 0 18841140 2012-03-14 19:09:29
6386306 hitchens.co.uk 0 No Rank 2012-03-14 19:09:20
6386307 hitcher.de 0 No Rank 2012-03-14 19:09:31
6386308 hitchesunlimited.com 0 21150549 2012-03-09 19:31:11
6386309 hitchfree.com 0 No Rank 2012-03-14 19:11:57
6386310 hitchhikerprod.com 0 No Rank 2012-03-14 19:12:00
6386311 hitchhikers-guide.com 0 No Rank 2012-03-14 19:12:05
6386312 hitchhikersguide.co.za 0 No Rank 2012-03-14 19:12:15
6386313 hitchhikersweek.co.uk 0 No Rank 2012-03-14 19:12:26
6386314 hitchhiketheworld.com 0 12392258 2012-03-14 19:12:29
6386315 hitchie.com 0 6160606 2012-03-14 19:33:35
6386316 hitchin-festival.com 0 No Rank 2012-03-14 19:12:32
6386317 hitchin.angle.uk.com 0 2325593 2012-03-14 19:12:42
6386318 hitchin.co.uk 0 No Rank 2012-03-14 19:12:34
6386319 hitchinandharpendenconservatives.co.uk 0 No Rank 2012-03-14 19:12:40
6386320 hitchinbridgeclub.org.uk 0 No Rank 2012-03-14 19:12:53
6386321 hitchinflorist.com 0 No Rank 2012-03-14 19:12:45
6386322 hitchinfo.com 0 2895859 2012-03-14 19:12:57
6386323 hitching.net 0 1468516 2012-03-14 19:13:02
6386324 hitchingpostbandb.com 0 No Rank 2012-03-12 19:22:03
6386325 hitchingpostcampground.com 0 No Rank 2012-03-14 19:13:02
6386326 hitchingup.com 0 9620255 2012-03-14 19:33:37
6386327 hitchinheartslfc.co.uk 0 No Rank 2012-03-14 19:13:29
6386328 hitchinmimramrotary.org 0 No Rank 2012-03-14 19:13:40
6386329 hitchinpostrv.com 0 5528213 2012-03-14 19:14:17
6386330 hitchinschoolofdance.co.uk 0 No Rank 2012-03-14 19:14:54
6386331 hitchinscouts.org.uk 0 No Rank 2012-03-14 19:14:33
6386332 hitchintownbowlsclub.org.uk 0 No Rank 2012-03-14 19:15:37
6386333 hitchly.com 0 No Rank 2012-03-14 19:17:35
6386334 hitchman.org 0 No Rank 2012-03-14 19:18:39
6386335 hitchmanandco.co.uk 0 No Rank 2012-03-14 19:18:29
6386336 hitchmosher.ro 0 2194692 2012-03-14 19:18:59
6386337 hitchmoughknives.com 0 No Rank 2012-03-14 19:18:43
6386338 hitchmountbikerack.org 0 No Rank 2012-03-14 19:19:09
6386339 hitchner.com 0 6473541 2012-03-14 19:19:15
6386340 hitchnpost.net 0 No Rank 2012-03-14 19:34:18
6386341 hitchon.co.kr 0 No Rank 2012-03-14 19:34:28
6386342 hitchoncaravans.co.uk 0 No Rank 2012-03-14 19:34:39
6386343 hitchpitch.net 0 No Rank 2012-03-14 19:34:56
6386344 hitchpointmobileservicing.co.uk 0 17040526 2012-03-14 19:34:48
6386345 hitchproandtow.net 0 No Rank 2012-03-14 19:35:00
6386346 hitchschool.org 0 20517377 2012-03-14 19:35:05
6386347 hitchupandgo.com 0 3866888 2012-03-14 19:35:11
6386348 hitcityusa.com 0 16154528 2012-03-14 20:06:53
6386349 hitclubbin.com 0 24760026 2012-03-14 19:35:41
6386350 hitco.net.cn 0 No Rank 2012-03-14 19:35:53
6386351 hitcode.ru 0 No Rank 2012-03-14 08:43:18
6386352 hitcoins.com 0 2030590 2012-03-14 19:36:15
6386353 hitcomfy.com 0 No Rank 2012-03-14 19:37:00
6386354 hitcomposer.com 0 1863088 2012-03-14 19:36:50
6386355 hitcompras.com 0 No Rank 2012-03-14 19:36:46
6386356 hitcontact.net 0 No Rank 2012-03-14 19:37:09
6386357 hitcoolmusic.5d6d.com 0 1197 2012-03-14 19:37:23
6386358 hitcotooling.com 0 No Rank 2012-03-14 19:38:30
6386359 hitcounteronline.com 0 8006584 2012-03-14 19:38:34
6386360 hitcoupon.com 0 No Rank 2012-03-14 19:39:16
6386361 hitdel.com 0 No Rank 2012-03-14 19:39:02
6386362 hitdelete.com 0 1332577 2012-03-14 19:39:04
6386363 hitdesign.dk 0 No Rank 2012-03-14 19:39:17
6386364 hitdigger.com 0 No Rank 2012-03-14 19:39:21
6386365 hitdobrerady.burdamedia.pl 0 491602 2012-03-14 19:39:24
6386366 hitdoctorsportscomplex.com 0 No Rank 2012-03-14 19:39:43
6386367 hitdossier.rickfm.eu 0 No Rank 2012-03-14 19:39:41
6386368 hitdv-fsn.com 0 No Rank 2012-03-14 20:07:07
6386369 hite.je.ro 0 1608012 2012-03-14 19:39:50
6386370 hite.uttermostpart.com 0 No Rank 2012-03-14 19:39:46
6386371 hiteachicago.com 0 No Rank 2012-03-14 19:39:44
6386372 hitec-cni.com 0 No Rank 2012-03-12 22:26:13
6386373 hitec-consult.de 0 1362639 2012-03-14 19:39:58
6386374 hitec-eshop.cz 0 3566563 2012-03-14 19:40:00
6386375 hitec-link.info 0 No Rank 2012-03-14 19:39:58
6386376 hitec-nutrition.cz 0 8891999 2012-03-14 19:40:17
6386377 hitec-obchod.cz 0 14605333 2012-03-14 19:40:18
6386378 hitec.co.il 0 No Rank 2012-03-14 19:40:21
6386379 hitec.net.ua 0 26084478 2012-03-14 19:41:37
6386380 hitec99.com 0 No Rank 2012-03-14 19:40:46
6386381 hitecautomation.com 0 No Rank 2012-03-14 19:40:51
6386382 hitecbio.co.th 0 No Rank 2012-03-14 20:07:16
6386383 hiteccomputacion.cl 0 24334657 2012-03-14 19:40:58
6386384 hiteccontrols.com 0 No Rank 2012-03-14 20:07:19
6386385 hitecdentist.com 0 No Rank 2012-03-14 19:41:40
6386386 hitecfrance.com 0 No Rank 2012-03-14 19:41:51
6386387 hitecglas.de 0 No Rank 2012-03-14 19:42:02
6386388 hitech-acties.nl 0 No Rank 2012-03-14 19:41:58
6386389 hitech-assets.com 0 23979107 2012-03-14 19:45:29
6386390 hitech-calibration.com 0 No Rank 2012-03-14 19:42:34
6386391 hitech-computer.info 0 No Rank 2012-03-14 20:07:30
6386392 hitech-eshop.com 0 No Rank 2012-03-14 19:43:39
6386393 hitech-explorer.com 0 No Rank 2012-03-09 19:31:11
6386394 hitech-express.com.au 0 4348912 2012-03-14 19:43:51
6386395 hitech-france.fr 0 10814829 2012-03-14 19:44:06
6386396 hitech-industries.com 0 25869080 2012-03-15 02:11:43
6386397 hitech-junky.com 0 No Rank 2012-03-14 19:45:25
6386398 hitech-malaysia.com 0 No Rank 2012-03-14 19:46:14
6386399 hitech-point.it 0 6784942 2012-03-14 19:46:17
6386400 hitech-sails.com 0 6575810 2012-03-14 19:46:15
6386401 hitech-serwis.com 0 14247042 2012-03-14 19:46:18
6386402 hitech-surgical.com 0 10627996 2012-03-14 19:46:19
6386403 hitech.blogrus.ru 0 189426 2012-03-14 19:46:30
6386404 hitech.com.br 0 5601316 2012-03-14 19:46:30
6386405 hitech.ie 0 No Rank 2012-03-10 14:43:06
6386406 hitech.in 0 8929838 2012-03-14 19:46:32
6386407 hitech.mail.am 0 357390 2012-03-14 19:46:39
6386408 hitech.se 0 No Rank 2012-03-14 19:46:42
6386409 hitech.vidin-online.com 0 1631932 2012-03-14 19:46:44
6386410 hitech.webrostov.ru 0 218037 2012-03-14 19:46:46
6386411 hitech2000.info 0 No Rank 2012-03-14 19:46:53
6386412 hitechabzar.com 0 13537537 2012-03-14 19:46:54
6386413 hitechacrylic.com 0 21593177 2012-03-14 19:47:03
6386414 hitechaem.com 0 10568213 2012-03-14 19:47:14
6386415 hitechanalogy.com 0 77128 2012-03-14 19:47:40
6386416 hitechartificiallimbs.com 0 No Rank 2012-03-14 19:48:13
6386417 hitechassistenza.com 0 13234313 2012-03-14 19:47:51
6386418 hitechautobodyinc.com 0 12260284 2012-03-14 19:48:21
6386419 hitechautomotivemo.com 0 7890493 2012-03-14 19:48:43
6386420 hitechblog.ro 0 No Rank 2012-03-14 19:52:30
6386421 hitechcellphone.com 0 23477229 2012-03-14 19:48:52
6386422 hitechcenter.de 0 No Rank 2012-03-14 19:49:29
6386423 hitechchannel.com 0 No Rank 2012-03-14 19:49:17
6386424 hitechcm.com 0 16642494 2012-03-14 19:50:14
6386425 hitechcoatings.nl 0 No Rank 2012-03-14 19:50:28
6386426 hitechcomputercentre.com 0 No Rank 2012-03-14 19:50:37
6386427 hitechconceptsinc.com 0 No Rank 2012-03-14 19:51:09
6386428 hitechcontrolpanels.com 0 No Rank 2012-03-14 19:51:13
6386429 hitechd.com 0 No Rank 2012-03-14 19:51:28
6386430 hitechdata.com 0 No Rank 2012-03-14 19:51:53
6386431 hitechdevelopers.com 0 20227912 2012-03-14 19:52:06
6386432 hitechdigital.it 0 No Rank 2012-03-14 19:52:10
6386433 hitechdistributorsng.com 0 No Rank 2012-03-14 19:52:12
6386434 hitechdonations.com 0 No Rank 2012-03-14 19:52:14
6386435 hitechelecsys.com 0 No Rank 2012-03-10 20:35:13
6386436 hitechelettronica.it 0 No Rank 2012-03-14 19:52:44
6386437 hitechenergysolutions.com.au 0 No Rank 2012-03-14 19:52:48
6386438 hitechenggindia.com 0 14588798 2012-03-14 19:52:53
6386439 hitechengineeringworks.in 0 No Rank 2012-03-14 19:53:02
6386440 hitechenviro.co.nz 0 12266638 2012-03-12 07:38:47
6386441 hitechepo.com 0 24370448 2012-03-14 19:53:08
6386442 hitechfab.in 0 No Rank 2012-03-09 19:31:17
6386443 hitechflooringindia.com 0 20339636 2012-03-14 19:53:24
6386444 hitechgadgetsnow.com 0 21185983 2012-03-14 19:53:11
6386445 hitechgarments.com 0 15563954 2012-03-14 19:53:34
6386446 hitechgeex.com 0 No Rank 2012-03-14 19:54:00
6386447 hitechglobal.com 0 1812142 2012-03-14 19:54:04
6386448 hitechgypsum.com 0 No Rank 2012-03-14 19:53:58
6386449 hitechhealthcare.org 0 No Rank 2012-03-15 09:16:41
6386450 hitechhome.in 0 8033770 2012-03-14 19:54:18
6386451 hitechhomes.ca 0 No Rank 2012-03-14 19:54:11
6386452 hitechhospitalfurniture.com 0 No Rank 2012-03-14 19:54:24
6386453 hitechhousekeeping.com 0 No Rank 2012-03-14 19:54:27
6386454 hitechinjectionmoulding.com 0 9961251 2012-03-14 19:56:05
6386455 hitechins.com 0 No Rank 2012-03-15 02:11:44
6386456 hitechinsulatingpaints.com 0 No Rank 2012-03-14 19:55:53
6386457 hitechit.com 0 9747106 2012-03-14 19:56:04
6386458 hitechitl.com 0 No Rank 2012-03-09 19:31:22
6386459 hitechkid.com 0 No Rank 2012-03-14 19:56:09
6386460 hitechkorea.net 0 No Rank 2012-03-14 19:56:20
6386461 hitechlabel.com 0 No Rank 2012-03-09 19:31:17
6386462 hitechlabels.in 0 13448139 2012-03-14 19:56:26
6386463 hitechlcdcleaner.com 0 No Rank 2012-03-14 19:56:23
6386464 hitechleathers.com 0 No Rank 2012-03-14 19:56:51
6386465 hitechled.com 0 No Rank 2012-03-14 19:56:39
6386466 hitechlift.gr 0 25636958 2012-03-14 19:57:13
6386467 hitechlimited.com 0 No Rank 2012-03-14 19:57:07
6386468 hitechmagic.com 0 23159311 2012-03-13 10:41:00
6386469 hitechmarketing.com 0 No Rank 2012-03-14 19:58:02
6386470 hitechmetrology.com.au 0 No Rank 2012-03-14 20:08:05
6386471 hitechmex.org 0 15887436 2012-03-14 19:58:12
6386472 hitechmotorsport.co.uk 0 No Rank 2012-03-14 19:58:18
6386473 hitechno.ru 0 No Rank 2012-03-14 19:58:34
6386474 hitechnocrats.com 0 No Rank 2012-03-14 19:58:36
6386475 hitechoffices.ro 0 No Rank 2012-03-14 19:58:44
6386476 hitechonlinestore.org 0 No Rank 2012-03-14 19:58:50
6386477 hitechpackaging.co.nz 0 No Rank 2012-03-14 19:59:08
6386478 hitechpals.com 0 No Rank 2012-03-14 19:58:54
6386479 hitechpanama.com 0 No Rank 2012-03-12 19:22:07
6386480 hitechphotoevents.com 0 No Rank 2012-03-14 19:59:54
6386481 hitechplast.com 0 20729805 2012-03-09 19:31:17
6386482 hitechpowerpressindia.com 0 No Rank 2012-03-14 20:00:04
6386483 hitechpowersource.com 0 No Rank 2012-03-14 20:00:12
6386484 hitechpowersystems.com 0 No Rank 2012-03-14 20:00:13
6386485 hitechprnews.com 0 4696036 2012-03-10 00:23:00
6386486 hitechproducts.co.uk 0 No Rank 2012-03-14 20:00:24
6386487 hitechprofile.com 0 No Rank 2012-03-14 20:00:45
6386488 hitechprofiles.com 0 23201007 2012-03-14 20:00:47
6386489 hitechpublicity.com 0 6283841 2012-03-14 06:36:56
6386490 hitechracingengines.com 0 No Rank 2012-03-14 20:00:57
6386491 hitechscale.com 0 No Rank 2012-03-14 20:00:51
6386492 hitechseatcovers.com 0 No Rank 2012-03-14 20:01:03
6386493 hitechsecurityinc.org 0 No Rank 2012-03-14 20:01:04
6386494 hitechserv.com 0 4234717 2012-03-14 20:01:48
6386495 hitechsgec.tradeindia.com 0 2908 2012-03-14 20:02:00
6386496 hitechsheetmetals.co.nz 0 No Rank 2012-03-14 20:01:51
6386497 hitechsignatures.com 0 No Rank 2012-03-14 20:02:12
6386498 hitechsignsinla.com 0 No Rank 2012-03-14 20:02:13
6386499 hitechsoft.net 0 No Rank 2012-03-14 20:02:02
6386500 hitechsoftsolutions.com 0 No Rank 2012-03-14 20:02:27
6386501 hitechsolar.com.au 0 No Rank 2012-03-14 20:02:16
6386502 hitechspeedy-sl.com 0 No Rank 2012-03-14 20:02:40
6386503 hitechspringindustries.com 0 No Rank 2012-03-14 20:02:32
6386504 hitechstainless.co.za 0 No Rank 2012-03-14 20:02:45
6386505 hitechstenter.com 0 20880278 2012-03-14 20:02:50
6386506 hitechstyles4u.com 0 8848085 2012-03-14 20:03:02
6386507 hitechsurabaya.com 0 4201342 2012-03-14 20:02:59
6386508 hitechtranny.com 0 16139160 2012-03-14 20:08:23
6386509 hitechtyre.com 0 7540082 2012-03-14 20:03:41
6386510 hitechuae.com 0 No Rank 2012-03-14 20:03:50
6386511 hitechultrahomes.com 0 No Rank 2012-03-14 20:09:26
6386512 hitechunveils.com 0 No Rank 2012-03-14 20:09:47
6386513 hitechwater.tradeindia.com 0 2908 2012-03-14 20:10:01
6386514 hitechwebhosting.com 0 No Rank 2012-03-14 20:10:09
6386515 hitechweighers.com 0 17350640 2012-03-14 20:10:35
6386516 hitechy.com 0 1943070 2012-03-14 20:10:16
6386517 hitechzone.net 0 No Rank 2012-03-11 11:05:15
6386518 hiteck.cl 0 No Rank 2012-03-14 20:10:40
6386519 hiteckman.com 0 No Rank 2012-03-10 00:23:00
6386520 hiteclife.com 0 No Rank 2012-03-14 20:10:58
6386521 hitecmedical.com 0 No Rank 2012-03-14 20:10:46
6386522 hitecny.com 0 No Rank 2012-03-14 20:11:03
6386523 hitecpc.com 0 No Rank 2012-03-14 20:11:12
6386524 hitecpd.com 0 11801053 2012-03-14 20:11:19
6386525 hitecscientific.com 0 No Rank 2012-03-14 20:11:46
6386526 hitecsemi.com 0 No Rank 2012-03-14 20:11:43
6386527 hitectx.glass.cn 0 78832 2012-03-14 20:11:40
6386528 hitecwelding.com.au 0 No Rank 2012-03-14 20:12:05
6386529 hitef.gr 0 No Rank 2012-03-14 20:11:54
6386530 hitega.cl 0 No Rank 2012-03-14 20:12:21
6386531 hiteikeiutu-test.brbrbiz.info 0 2076129 2012-03-14 20:12:05
6386532 hitein.com 0 No Rank 2012-03-14 20:12:09
6386533 hitek-style.ru 0 4904590 2012-03-14 20:12:32
6386534 hitek.com.ua 0 No Rank 2012-03-14 20:12:37
6386535 hitekcable.ru 0 No Rank 2012-03-13 10:41:00
6386536 hitekcity.com 0 No Rank 2012-03-14 20:12:51
6386537 hitekfirearms.com 0 No Rank 2012-03-14 20:14:08
6386538 hitekfx.com 0 No Rank 2012-03-14 20:14:23
6386539 hitekindo.com 0 26175894 2012-03-14 20:14:18
6386540 hitekmachine.com 0 No Rank 2012-03-14 20:14:33
6386541 hitekmanifolds.com 0 No Rank 2012-03-12 19:22:07
6386542 hitekmarketing.ca 0 No Rank 2012-03-14 20:15:12
6386543 hitekplus.co.kr 0 No Rank 2012-03-14 20:31:27
6386544 hiteksc.com 0 No Rank 2012-03-14 20:15:40
6386545 hiteksecurityroodepoort.co.za 0 No Rank 2012-03-14 20:16:02
6386546 hiteksystems.co.nz 0 No Rank 2012-03-14 20:16:18
6386547 hitekweb.com 0 No Rank 2012-03-14 20:16:22
6386548 hitekwindowfilmsolutions.com 0 11062477 2012-03-14 20:31:40
6386549 hitel-duna.hu 0 No Rank 2012-03-14 20:17:14
6386550 hitel-lizing.com 0 8836414 2012-03-14 20:17:20
6386551 hitel-vagyonkezeles-adossagkezeles.internetceglista.hu 0 4579384 2012-03-14 20:17:26
6386552 hitel.info.hu 0 19914765 2012-03-14 20:17:42
6386553 hitel.lapozz.hu 0 85601 2012-03-14 20:17:32
6386554 hitel.linkem.hu 0 987143 2012-03-14 20:18:08
6386555 hitel.megyeiapro.hu 0 449961 2012-03-14 20:18:34
6386556 hitel.talk4fun.net 0 158069 2012-03-14 20:18:46
6386557 hitel.weblink.hu 0 213331 2012-03-14 20:18:13
6386558 hitelarena.hu 0 2084391 2012-03-14 20:18:56
6386559 hitelaukcio.hu 0 No Rank 2012-03-14 20:19:01
6386560 hiteldoktor.hu 0 3572903 2012-03-09 19:31:23
6386561 hiteled.hu 0 25869081 2012-03-14 20:19:12
6386562 hitelek.name 0 18446963 2012-03-14 08:43:18
6386563 hiteles.extra.hu 0 38488 2012-03-14 20:20:07
6386564 hitelesseg.hu 0 No Rank 2012-03-14 20:20:01
6386565 hitelet.go.ro 0 98103 2012-03-14 20:20:13
6386566 hiteligenyles.info 0 No Rank 2012-03-14 08:43:18
6386567 hitelkalauz.blogter.hu 0 51701 2012-03-14 20:20:40
6386568 hitelkalauz.eu 0 No Rank 2012-03-14 20:20:43
6386569 hitelkalkulator.ingatlan1.hu 0 160595 2012-03-14 20:20:53
6386570 hitellap.blogter.hu 0 51701 2012-03-14 20:21:29
6386571 hitelmester.net 0 No Rank 2012-03-14 20:21:40
6386572 hitelpiac.com 0 No Rank 2012-03-10 00:23:02
6386573 hitelplusz.hu 0 19120261 2012-03-12 23:02:54
6386574 hitelsugo.hu 0 No Rank 2012-03-14 20:23:30
6386575 hiteltanacsadas.hu 0 2510143 2012-03-14 20:23:50
6386576 hiteltolmacs.hu 0 22489860 2012-03-14 20:23:36
6386577 hitelwireless.com 0 No Rank 2012-03-14 20:23:43
6386578 hitema.it 0 7337043 2012-03-14 20:24:00
6386579 hitemp.co.za 0 2132914 2012-03-14 20:23:57
6386580 hitemp.com.au 0 No Rank 2012-03-14 20:24:12
6386581 hitemplin.de 0 No Rank 2012-03-14 20:24:04
6386582 hiten.co.cc 0 No Rank 2012-03-14 20:24:16
6386583 hitenthakrar.com 0 24538892 2012-03-14 20:24:40
6386584 hiteq.org 0 14096220 2012-03-14 20:24:30
6386585 hitequipment.com.au 0 No Rank 2012-03-14 20:24:50
6386586 hiter.ru 0 No Rank 2012-03-14 20:24:56
6386587 hitermusic.com 0 534878 2012-03-14 20:24:43
6386588 hitesales.com 0 No Rank 2012-03-10 12:36:12
6386589 hitesh.cybertec.co.in 0 4095538 2012-03-14 20:25:20
6386590 hiteshestate.com 0 6391835 2012-03-14 20:25:12
6386591 hiteshjoshi.com 0 816285 2012-03-14 20:25:32
6386592 hiteshmehta.in 0 5247896 2012-03-14 20:25:37
6386593 hiteshmotors.com 0 No Rank 2012-03-14 20:26:33
6386594 hitevision.e.tradeee.com 0 334261 2012-03-14 20:26:53
6386595 hitew-enterprises.com 0 13636167 2012-03-14 20:27:01
6386596 hitex-zrt.hu 0 9542123 2012-03-14 20:27:48
6386597 hitexhawaii.com 0 No Rank 2012-03-14 20:32:17
6386598 hitexmisstwincity.com 0 No Rank 2012-03-14 20:27:33
6386599 hitexpress.ch 0 No Rank 2012-03-14 20:27:24
6386600 hitexturls.info 0 No Rank 2012-03-14 20:28:25
6386601 hitextw.com 0 No Rank 2012-03-14 20:30:31
6386602 hitfass.info 0 No Rank 2012-03-14 20:30:32
6386603 hitfaz2.bloglor.com 0 40268 2012-03-14 20:30:41
6386604 hitfeel.5d6d.com 0 1197 2012-03-14 20:30:54
6386605 hitfeeling.com 0 No Rank 2012-03-14 20:32:22
6386606 hitfilmdownload.com 0 9948821 2012-03-14 20:31:01
6386607 hitfilmproductions.com 0 No Rank 2012-03-14 20:30:51
6386608 hitfitnesstraining.com 0 No Rank 2012-03-14 20:31:13
6386609 hitfix.co.uk 0 604535 2012-03-14 20:32:35
6386610 hitfm.5d6d.com 0 1197 2012-03-14 20:32:45
6386611 hitfm.radio.at 0 105600 2012-03-14 20:32:56
6386612 hitfoolmax.net 0 2121046 2012-03-14 20:33:07
6386613 hitfoundation.eu 0 No Rank 2012-03-14 20:33:13
6386614 hitfree.info 0 No Rank 2012-03-14 20:33:25
6386615 hitgiganten.info 0 No Rank 2012-03-14 20:33:46
6386616 hitgigantradio.nl 0 No Rank 2012-03-14 20:33:42
6386617 hitgirlgames.com 0 3329375 2012-03-14 20:33:53
6386618 hitgold.ru 0 3353258 2012-03-14 20:34:17
6386619 hitgoldcap.org 0 No Rank 2012-03-14 20:36:21
6386620 hitgoogle.com 0 4055197 2012-03-13 04:03:27
6386621 hitgpoolandspa.com 0 No Rank 2012-03-14 20:36:26
6386622 hitgraphixdesigns.com 0 No Rank 2012-03-14 20:36:31
6386623 hitgreat.com 0 No Rank 2012-03-14 20:36:48
6386624 hith.info 0 No Rank 2012-03-14 20:36:58
6386625 hitha.org 0 12589300 2012-03-14 20:36:38
6386626 hithamweb.com 0 No Rank 2012-03-14 20:37:08
6386627 hitheifer.com 0 No Rank 2012-03-14 20:37:13
6386628 hitherandthither.com 0 No Rank 2012-03-14 20:37:21
6386629 hithergreen.org.uk 0 659182 2012-03-14 20:37:44
6386630 hitherm.ie 0 No Rank 2012-03-14 20:37:54
6386631 hithilversum.scouting.nl 0 1269968 2012-03-14 20:38:29
6386632 hithit-me.info 0 No Rank 2012-03-14 20:38:13
6386633 hithit.biz 0 No Rank 2012-03-14 20:38:16
6386634 hithmedia.com 0 No Rank 2012-03-14 20:38:45
6386635 hithorse.com 0 2121897 2012-03-14 20:39:09
6386636 hithotels.net 0 No Rank 2012-03-14 20:39:15
6386637 hithottech.com 0 No Rank 2012-03-14 20:39:41
6386638 hithounds.com 0 11392013 2012-03-14 20:41:36
6386639 hithouse.sourceaudio.com 0 859948 2012-03-14 20:42:33
6386640 hitian.prohp.jp 0 99062 2012-03-14 20:43:00
6386641 hitias-tm.pe-harta.ro 0 619726 2012-03-14 20:41:50
6386642 hitidesolar.21tyn.com 0 502330 2012-03-14 20:42:01
6386643 hitigrice.com 0 2947954 2012-03-14 20:43:19
6386644 hitigrice.info 0 No Rank 2012-03-14 20:42:56
6386645 hitigrushka.ru 0 908588 2012-03-09 19:31:25
6386646 hitilin.com 0 No Rank 2012-03-14 20:43:39
6386647 hitime.com.cn 0 15355959 2012-03-14 20:43:56
6386648 hitinautomotiveequipment.com 0 No Rank 2012-03-10 00:26:26
6386649 hitingilizce.com 0 No Rank 2012-03-14 20:44:09
6386650 hitini.com 0 No Rank 2012-03-14 06:36:58
6386651 hitinks.com 0 No Rank 2012-03-14 20:44:01
6386652 hitinto.info 0 No Rank 2012-03-14 20:44:15
6386653 hitit.fi 0 5001463 2012-03-10 00:23:02
6386654 hititair.com 0 17354144 2012-03-12 19:22:08
6386655 hititbet.biz 0 13283492 2012-03-14 20:44:26
6386656 hititborek.com 0 No Rank 2012-03-14 20:44:47
6386657 hititdrums.nl 0 13117055 2012-03-14 20:45:01
6386658 hititholding.com.tr 0 5729450 2012-03-14 20:45:22
6386659 hitithomes.com 0 27780295 2012-03-14 20:45:13
6386660 hititmobilya.com.tr 0 No Rank 2012-03-14 20:45:23
6386661 hititstrateji.com 0 27746197 2012-03-14 20:46:13
6386662 hititstudios.com 0 9923172 2012-03-14 20:47:43
6386663 hitjogos.com 0 3430178 2012-03-14 20:47:53
6386664 hitjpop.com 0 1787447 2012-03-14 20:48:02
6386665 hitk.co.kr 0 No Rank 2012-03-14 20:48:14
6386666 hitkabina.ru 0 4768273 2012-03-14 20:48:08
6386667 hitkashroot.com 0 7503242 2012-03-14 20:48:26
6386668 hitkbfit.com 0 15028363 2012-03-10 00:23:00
6386669 hitkd.com 0 10834266 2012-03-12 19:22:08
6386670 hitkomp.pl 0 No Rank 2012-03-14 20:48:39
6386671 hitkontor.com 0 No Rank 2012-03-14 20:48:59
6386672 hitkorafting.com 0 26480263 2012-03-14 20:49:13
6386673 hitlab.com 0 505279 2012-03-14 20:49:06
6386674 hitlabsrecordingstudios.com 0 No Rank 2012-03-14 20:49:15
6386675 hitlake.com 0 2850686 2012-03-14 20:49:19
6386676 hitlance.com 0 No Rank 2012-03-14 01:22:22
6386677 hitland.com 0 No Rank 2012-03-14 20:49:26
6386678 hitland.de 0 No Rank 2012-03-14 20:49:30
6386679 hitland.nl 0 12936486 2012-03-14 20:49:37
6386680 hitlatin.com 0 13379314 2012-03-14 20:49:46
6386681 hitle.net 0 6853562 2012-03-14 20:49:57
6386682 hitler-politik.de 0 No Rank 2012-03-14 20:50:15
6386683 hitler-vs-israel.free-opinion.com 0 229671 2012-03-14 20:50:29
6386684 hitlerdvd.com 0 No Rank 2012-03-14 20:52:13
6386685 hitlerhost.ru 0 No Rank 2012-03-14 20:52:22
6386686 hitlernews.cloudworth.com 0 1143769 2012-03-14 20:52:31
6386687 hitlersukpictures.co.uk 0 No Rank 2012-03-14 20:52:39
6386688 hitleryouthknives.com 0 No Rank 2012-03-14 20:52:46
6386689 hitlijsten.kadaza.nl 0 75382 2012-03-14 20:53:09
6386690 hitlijsten.start.be 0 151612 2012-03-14 20:53:01
6386691 hitlinmason.net 0 No Rank 2012-03-10 12:36:27
6386692 hitlis.ru 0 No Rank 2012-03-14 20:53:29
6386693 hitlist-deutschland.de 0 No Rank 2012-03-14 20:53:36
6386694 hitlist.co.uk 0 No Rank 2012-03-14 20:53:44
6386695 hitlistoutdoors.com 0 No Rank 2012-03-14 20:53:50
6386696 hitlistradio.com 0 No Rank 2012-03-11 11:05:06
6386697 hitlocs.co.jp 0 No Rank 2012-03-14 20:54:00
6386698 hitlook.ru 0 1074552 2012-03-14 20:54:08
6386699 hitlyrics.net 0 No Rank 2012-03-14 20:54:23
6386700 hitmagazin.comze.com 0 31857 2012-03-14 20:54:17
6386701 hitmaker.co.uk 0 No Rank 2012-03-14 20:54:34
6386702 hitmakers.ru 0 No Rank 2012-03-12 13:05:42
6386703 hitman-2-silent-assassin.hispazone.com 0 113160 2012-03-14 20:54:41
6386704 hitman-2.softonic.fr 0 3314 2012-03-14 20:54:45
6386705 hitmanabsolutiondemo.com 0 No Rank 2012-03-12 21:11:11
6386706 hitmanasylum.pl 0 12497427 2012-03-14 20:54:54
6386707 hitmanbluesband.com 0 18452457 2012-03-14 20:56:15
6386708 hitmancustommotorcycles.com 0 No Rank 2012-03-09 19:31:23
6386709 hitmanproforum.com 0 4844118 2012-03-15 02:11:47
6386710 hitmanscookbook.com 0 No Rank 2012-03-14 20:56:28
6386711 hitmanseo.com 0 4518762 2012-03-14 20:56:22
6386712 hitmantraffic.info 0 6995062 2012-03-14 20:56:57
6386713 hitman_p.tripod.com 0 759 2012-03-14 20:54:49
6386714 hitmap.com 0 3339977 2012-03-14 20:56:34
6386715 hitmark.co.jp 0 No Rank 2012-03-14 20:57:03
6386716 hitmax.com 0 12608120 2012-03-14 20:57:20
6386717 hitmecreditrepair.com 0 No Rank 2012-03-14 20:58:17
6386718 hitmedia.dk 0 12262975 2012-03-14 20:58:00
6386719 hitmeet.com 0 1413624 2012-03-14 21:01:00
6386720 hitmenaustin.com 0 9008569 2012-03-14 20:59:06
6386721 hitmenow.com 0 No Rank 2012-03-14 20:58:26
6386722 hitmeonetime.com 0 No Rank 2012-03-14 20:58:43
6386723 hitmeupmarketing.com 0 No Rank 2012-03-14 20:59:22
6386724 hitmix.net 0 No Rank 2012-03-14 20:59:49
6386725 hitmobile.ru 0 No Rank 2012-03-14 21:01:09
6386726 hitmook.scouting.nl 0 1269968 2012-03-14 21:01:36
6386727 hitmoviecostumes.com 0 No Rank 2012-03-11 00:20:53
6386728 hitmusic.co.za 0 No Rank 2012-03-14 21:04:03
6386729 hitmusic983.com 0 11563717 2012-03-11 11:05:10
6386730 hitmusicmp3.com 0 No Rank 2012-03-14 21:04:14
6386731 hitn.co.uk 0 No Rank 2012-03-14 21:04:27
6386732 hitnahit.com 0 15103768 2012-03-14 21:04:32
6386733 hitnapomoc.net 0 1366528 2012-03-15 02:11:50
6386734 hitne-intervencije.com.hr 0 10683258 2012-03-14 21:04:41
6386735 hitnitz46.com 0 23013951 2012-03-14 21:05:01
6386736 hitnmisscharters.com 0 No Rank 2012-03-14 21:05:03
6386737 hitnometry.com 0 2327175 2012-03-14 21:05:21
6386738 hitnrun.co.il 0 21860181 2012-03-14 21:05:09
6386739 hitnrunstores.com 0 No Rank 2012-03-14 21:05:14
6386740 hitnruntraffic.com 0 2526597 2012-03-14 21:06:00
6386741 hito-anshin.com 0 No Rank 2012-03-14 21:06:07
6386742 hito-coffeebeans.com 0 No Rank 2012-03-14 21:06:38
6386743 hito-den.com 0 No Rank 2012-03-14 21:06:45
6386744 hito-nayami.com 0 No Rank 2012-03-14 21:06:57
6386745 hito-tsukiai.com 0 No Rank 2012-03-09 19:31:27
6386746 hito.enbbs.jp 0 6407066 2012-03-14 21:07:09
6386747 hitobadminton.com 0 No Rank 2012-03-14 21:07:22
6386748 hitobiavi.net 0 No Rank 2012-03-14 21:07:37
6386749 hitocean.com 0 13454063 2012-03-14 21:07:31
6386750 hitoceramics.com 0 18905267 2012-03-14 21:07:29
6386751 hitochdit.eu 0 11689515 2012-03-14 21:07:47
6386752 hitocogi.front.ru 0 109760 2012-03-14 21:07:52
6386753 hitodasuke.com 0 No Rank 2012-03-14 21:07:58
6386754 hitoday.net 0 2202578 2012-03-14 21:08:16
6386755 hitode-kihi.com 0 No Rank 2012-03-14 21:08:05
6386756 hitoduma-club.kir.jp 0 No Rank 2012-03-14 21:08:29
6386757 hitoduma-telh.net 0 No Rank 2012-03-14 21:08:41
6386758 hitoduma-uwaki.com 0 No Rank 2012-03-14 21:08:49
6386759 hitodumaai.noramba.net 0 1042820 2012-03-14 21:09:00
6386760 hitodumadeli.com 0 No Rank 2012-03-14 21:10:13
6386761 hitodumadh.com 0 2580093 2012-03-14 21:09:49
6386762 hitoe-cosmetic.jp 0 No Rank 2012-03-14 21:10:24
6386763 hitoe-yuyaku.com 0 No Rank 2012-03-14 21:10:19
6386764 hitoe.mobaroad.com 0 No Rank 2012-03-14 21:10:35
6386765 hitogestion.com 0 25233905 2012-03-14 21:10:47
6386766 hitogo.jugem.jp 0 734 2012-03-14 21:10:54
6386767 hitohada-shop.ocnk.net 0 3072 2012-03-14 21:10:41
6386768 hitohirahouse.jp 0 No Rank 2012-03-14 21:10:59
6386769 hitokado.info 0 No Rank 2012-03-14 21:11:14
6386770 hitokiri.myopenid.com 0 49532 2012-03-14 21:11:27
6386771 hitokna.ru 0 13859251 2012-03-14 21:11:33
6386772 hitokura.cherry-golf.com 0 7077735 2012-03-14 21:11:43
6386773 hitomedia.jp 0 870071 2012-03-14 21:11:55
6386774 hitomi-ep.com 0 4960265 2012-03-14 21:12:14
6386775 hitomi-eye.com 0 No Rank 2012-03-14 21:12:04
6386776 hitomi-iryo.com 0 No Rank 2012-03-14 21:12:33
6386777 hitomi-kuroishi.lyrics-text.com 0 4736031 2012-03-14 21:12:24
6386778 hitomi-minyou.jpn.org 0 4398 2012-03-14 21:12:48
6386779 hitomi3.blog65.fc2.com 0 44 2012-03-14 21:16:35
6386780 hitomids.com 0 No Rank 2012-03-14 21:17:12
6386781 hitominomura.droptokyo.com 0 134020 2012-03-14 21:17:09
6386782 hitomiriry.com 0 No Rank 2012-03-14 21:17:33
6386783 hitomitsu.jp 0 No Rank 2012-03-14 21:17:27
6386784 hitomix.nikki-k.jp 0 1565019 2012-03-14 21:17:54
6386785 hitomizu.net 0 No Rank 2012-03-14 21:17:46
6386786 hitonowa.org 0 No Rank 2012-03-14 21:17:41
6386787 hitontech.com.cn 0 No Rank 2012-03-14 21:18:57
6386788 hitop365.com 0 No Rank 2012-03-14 21:18:12
6386789 hitopee.com 0 No Rank 2012-03-14 21:18:17
6386790 hitori-inc.com 0 4056465 2012-03-14 21:19:52
6386791 hitori.co.jp 0 No Rank 2012-03-14 21:19:57
6386792 hitori.itmen.info 0 No Rank 2012-03-14 21:20:02
6386793 hitoriatest.frikitest.com 0 534227 2012-03-14 21:20:29
6386794 hitoriinteria.com 0 1188644 2012-03-14 21:20:34
6386795 hitorikai.com 0 No Rank 2012-03-14 21:20:41
6386796 hitorikakurenbo778.web.fc2.com 0 44 2012-03-14 21:20:49
6386797 hitoritozan.com 0 No Rank 2012-03-14 21:21:02
6386798 hitoritravel.com 0 No Rank 2012-03-14 21:27:10
6386799 hitos.com.mx 0 11437590 2012-03-14 21:21:12
6386800 hitosagashi-archives.com 0 No Rank 2012-03-14 21:21:26
6386801 hitosan.com 0 No Rank 2012-03-14 21:21:39
6386802 hitoshitoyoda.com 0 No Rank 2012-03-14 21:21:44
6386803 hitoshiujiie.com 0 No Rank 2012-03-14 21:21:45
6386804 hitosurbanos.com 0 No Rank 2012-03-14 21:21:51
6386805 hitotoki-net.com 0 No Rank 2012-03-14 21:21:58
6386806 hitotoki-online.com 0 1029108 2012-03-14 21:23:22
6386807 hitotoki-t.com 0 No Rank 2012-03-14 21:23:30
6386808 hitotsubo.m78.com 0 87097 2012-03-14 21:23:36
6386809 hitotsunokai.jp 0 No Rank 2012-03-14 21:24:00
6386810 hitour2005.com 0 15176952 2012-03-14 21:23:54
6386811 hitower.info 0 No Rank 2012-03-14 21:24:10
6386812 hitoy0088.b2b168.com 0 4820 2012-03-14 21:24:06
6386813 hitoyasumi.com 0 No Rank 2012-03-14 21:24:06
6386814 hitoyo558.com 0 No Rank 2012-03-14 21:24:19
6386815 hitoyoshi-bussan.jp 0 No Rank 2012-03-14 21:24:12
6386816 hitoyoshi-hotel.com 0 No Rank 2012-03-14 21:24:30
6386817 hitoyoshi-jc.com 0 7144238 2012-03-14 21:24:25
6386818 hitoys.panelgraphics.com 0 No Rank 2012-03-14 21:25:11
6386819 hitozuma-des.com 0 4764005 2012-03-13 10:41:05
6386820 hitozuma.2-d.jp 0 39385 2012-03-14 21:27:40
6386821 hitozuma.net 0 No Rank 2012-03-14 21:27:44
6386822 hitpack5.com 0 No Rank 2012-03-14 21:27:49
6386823 hitparade-freialdenhoven.de 0 No Rank 2012-03-14 21:27:55
6386824 hitparade-schlager.de 0 7657653 2012-03-14 21:28:11
6386825 hitparade.cd 0 No Rank 2012-03-14 21:28:05
6386826 hitparade.radio-powerdream.ch 0 No Rank 2012-03-14 21:28:31
6386827 hitparadecreative.com 0 No Rank 2012-03-14 21:28:35
6386828 hitparadehalloffame.com 0 3304209 2012-03-14 21:28:39
6386829 hitparaden-party.ch 0 No Rank 2012-03-14 21:28:20
6386830 hitparadenforum.de 0 7804468 2012-03-14 21:28:56
6386831 hitparadijs.nl 0 2139348 2012-03-14 21:32:02
6386832 hitparkmusic.com 0 No Rank 2012-03-14 21:29:26
6386833 hitpitmma.com 0 20103473 2012-03-14 21:30:05
6386834 hitplan.co.jp 0 690233 2012-03-14 21:30:25
6386835 hitplaneta.ru 0 6102932 2012-03-14 21:30:20
6386836 hitplus.tk 0 No Rank 2012-03-14 21:30:44
6386837 hitpneu.cz 0 6525335 2012-03-14 21:30:55
6386838 hitportal.hr 0 14231253 2012-03-14 21:31:12
6386839 hitprint.com 0 22842504 2012-03-10 12:36:16
6386840 hitproduction.sk 0 No Rank 2012-03-14 21:34:38
6386841 hitpromosyon.com 0 12904826 2012-03-14 21:35:07
6386842 hitprostudyguide.com 0 No Rank 2012-03-14 21:34:55
6386843 hitpulsa.com 0 No Rank 2012-03-14 21:35:13
6386844 hitra.minby.net 0 1442855 2012-03-14 21:35:18
6386845 hitrace.net 0 No Rank 2012-03-14 21:35:23
6386846 hitradesupply.com 0 No Rank 2012-03-10 20:35:22
6386847 hitradio-bautzen.de 0 No Rank 2012-03-14 13:15:58
6386848 hitradio-musictown.de 0 No Rank 2012-03-14 21:35:33
6386849 hitradio-sky.phonostar.de 0 191628 2012-03-14 21:35:38
6386850 hitradio-vorgebirge-chat.de 0 No Rank 2012-03-14 21:35:32
6386851 hitradiobayern.phonostar.de 0 191628 2012-03-14 21:35:47
6386852 hitradioffh-hitsfuerkids.phonostar.de 0 191628 2012-03-14 21:35:56
6386853 hitradiofm.nl 0 No Rank 2012-03-12 19:22:11
6386854 hitradiohamm.de 0 No Rank 2012-03-14 21:36:14
6386855 hitradioliberty.eu 0 No Rank 2012-03-14 21:36:02
6386856 hitradionet.com 0 13454170 2012-03-14 21:36:18
6386857 hitradiooe3.phonostar.de 0 191628 2012-03-14 21:36:39
6386858 hitradiosur.com 0 No Rank 2012-03-14 21:36:54
6386859 hitragaardsmat.no 0 No Rank 2012-03-14 21:37:18
6386860 hitrainer.ca 0 No Rank 2012-03-14 21:37:10
6386861 hitranett.no 0 No Rank 2012-03-14 21:37:23
6386862 hitrapia.co.uk 0 22660392 2012-03-14 21:37:27
6386863 hitratesolutions.com 0 1483516 2012-03-14 21:38:56
6386864 hitravel.com.ar 0 3393859 2012-03-14 21:38:40
6386865 hitravelmaldives.com 0 No Rank 2012-03-14 21:38:38
6386866 hitreeservice.com 0 No Rank 2012-03-14 21:39:11
6386867 hitrei.com 0 No Rank 2012-03-14 21:38:59
6386868 hitreisen.com 0 3619484 2012-03-14 21:39:03
6386869 hitremixes.com 0 4256759 2012-03-14 21:39:24
6386870 hitri-zmenki.net 0 4289266 2012-03-14 21:39:32
6386871 hitrise.com 0 No Rank 2012-03-14 21:42:54
6386872 hitro.bg 0 331060 2012-03-14 21:39:53
6386873 hitronex.com 0 No Rank 2012-03-14 21:40:30
6386874 hitrontech.com.tw 0 7071849 2012-03-14 21:40:19
6386875 hitrouter.com 0 23081100 2012-03-14 21:40:41
6386876 hitrump.com 0 No Rank 2012-03-14 21:41:20
6386877 hitrun.net 0 No Rank 2012-03-14 21:41:37
6386878 hitrurohotel.com 0 12770736 2012-03-14 21:41:51
6386879 hits-booster.net 0 No Rank 2012-03-14 21:42:15
6386880 hits-counter.com 0 21185996 2012-03-14 21:42:06
6386881 hits-drc.com 0 No Rank 2012-03-14 21:42:00
6386882 hits-for-kids.eu 0 4295209 2012-03-14 21:42:32
6386883 hits-generator.com 0 No Rank 2012-03-14 21:42:25
6386884 hits-in.de 0 No Rank 2012-03-14 21:42:52
6386885 hits-online.jp 0 2345314 2012-03-14 21:42:48
6386886 hits-only.com 0 No Rank 2012-03-14 21:42:43
6386887 hits-software.de 0 22782410 2012-03-14 21:43:06
6386888 hits-v.com 0 No Rank 2012-03-14 21:43:20
6386889 hits.astcorp.com 0 6015514 2012-03-14 21:43:32
6386890 hits.chalgatube.com 0 621562 2012-03-14 21:43:38
6386891 hits.co 0 No Rank 2012-03-13 07:36:41
6386892 hits.com.br 0 1334396 2012-03-14 21:43:46
6386893 hits.gr.jp 0 7094769 2012-03-14 21:43:54
6386894 hits1061.com 0 22385593 2012-03-14 21:49:15
6386895 hits2u.ru 0 No Rank 2012-03-14 21:49:25
6386896 hits4sure.nl 0 11090704 2012-03-14 21:44:04
6386897 hits80.fr 0 No Rank 2012-03-14 21:44:22
6386898 hitsaajat.fi 0 No Rank 2012-03-11 11:05:08
6386899 hitsandfits.com 0 11628438 2012-03-14 21:44:06
6386900 hitsas.fi 0 No Rank 2012-03-14 21:44:33
6386901 hitsbrasil.com.br 0 3944707 2012-03-14 21:44:47
6386902 hitschina.com 0 No Rank 2012-03-14 21:45:05
6386903 hitscotland.org.uk 0 No Rank 2012-03-14 21:45:00
6386904 hitsdaily.net 0 3238310 2012-03-12 19:22:12
6386905 hitseason.rosfirm.ru 0 37698 2012-03-14 21:49:37
6386906 hitseminars.com 0 No Rank 2012-03-14 21:49:43
6386907 hitsensor.nl 0 No Rank 2012-03-14 21:49:49
6386908 hitsession.com 0 No Rank 2012-03-14 21:49:46
6386909 hitsguru.com 0 17768588 2012-03-14 21:49:59
6386910 hitsgym.hu 0 9517977 2012-03-14 21:50:27
6386911 hitshaven.com 0 2074068 2012-03-14 21:50:17
6386912 hitshop-tv.com 0 2187070 2012-03-14 21:50:11
6386913 hitshop.org 0 20365629 2012-03-14 21:50:35
6386914 hitsinabox.pro 0 16239996 2012-03-14 21:50:37
6386915 hitsing.net 0 No Rank 2012-03-14 21:50:50
6386916 hitskeepcoming.com 0 7893710 2012-03-14 21:50:55
6386917 hitslatinos.com 0 8553261 2012-03-14 21:51:06
6386918 hitsm.ro 0 No Rank 2012-03-14 21:52:09
6386919 hitsmatic.com 0 9005684 2012-03-14 21:52:03
6386920 hitsmit.nl 0 No Rank 2012-03-14 21:52:15
6386921 hitsmusic.it 0 No Rank 2012-03-14 21:52:30
6386922 hitsmymusic.fr 0 No Rank 2012-03-14 21:52:19
6386923 hitsnook.com 0 23081104 2012-03-14 21:52:42
6386924 hitsofthevampire.com 0 11403579 2012-03-14 21:52:35
6386925 hitsonehigh.com 0 No Rank 2012-03-14 21:52:52
6386926 hitsonline.com 0 No Rank 2012-03-14 21:52:46
6386927 hitsonline.net 0 25162711 2012-03-14 21:52:57
6386928 hitsonltm.com 0 No Rank 2012-03-10 00:23:06
6386929 hitsound.net 0 No Rank 2012-03-14 21:54:43
6386930 hitsoverload.com 0 9256409 2012-03-14 21:55:05
6386931 hitspantanal.com.br 0 No Rank 2012-03-14 21:55:28
6386932 hitspersonalizacao.com 0 No Rank 2012-03-14 21:56:17
6386933 hitsphere.blueserf.com 0 No Rank 2012-03-14 21:55:50
6386934 hitspor.wordpress.com 0 No Rank 2012-03-14 21:56:37
6386935 hitspot.info 0 No Rank 2012-03-14 21:57:56
6386936 hitspot.utk.edu 0 15776 2012-03-14 22:00:16
6386937 hitsquad.net 0 No Rank 2012-03-14 01:22:19
6386938 hitsquadx.com 0 No Rank 2012-03-14 21:58:29
6386939 hitsquiz.com 0 No Rank 2012-03-14 21:58:48
6386940 hitssecurity.com.au 0 No Rank 2012-03-14 21:58:37
6386941 hitssupplynetwork.com 0 No Rank 2012-03-14 21:59:02
6386942 hitstarget.com 0 6894649 2012-03-14 21:59:27
6386943 hitstec.de 0 3339009 2012-03-14 21:59:41
6386944 hitsthelips.com 0 No Rank 2012-03-14 22:00:03
6386945 hitstick6.com 0 18874784 2012-03-14 21:59:53
6386946 hitstomillions.com 0 6421634 2012-03-14 22:00:19
6386947 hitstream.ru 0 6804972 2012-03-14 22:06:05
6386948 hitstreet.zespoly-weselne.pl 0 859139 2012-03-14 22:02:57
6386949 hitsugaya-toushirou.animepaper.net 0 28622 2012-03-14 22:03:07
6386950 hitsuhanta.com 0 No Rank 2012-03-14 22:03:22
6386951 hitsujigumo.shiga-saku.net 0 142836 2012-03-14 22:03:46
6386952 hitsujimura.g.ribbon.to 0 32881 2012-03-14 22:03:54
6386953 hitsuki-souken.jp 0 No Rank 2012-03-14 22:04:04
6386954 hitsukishinji.com 0 No Rank 2012-03-14 22:04:39
6386955 hitsumabushi.xtone.jp 0 352233 2012-03-14 22:04:44
6386956 hitsumoto.info 0 No Rank 2012-03-14 22:05:10
6386957 hitsystem.com.au 0 12122771 2012-03-14 22:05:57
6386958 hitszone.net 0 14844065 2012-03-11 00:20:53
6386959 hitt.de 0 No Rank 2012-03-14 22:06:30
6386960 hitta-vagen.skojspel.se 0 811441 2012-03-14 22:06:23
6386961 hitta24.se 0 4497768 2012-03-14 22:06:11
6386962 hittabarnvagn.se 0 No Rank 2012-03-14 22:06:46
6386963 hittabild.se 0 No Rank 2012-03-14 22:06:37
6386964 hittabilforsakring.nu 0 No Rank 2012-03-14 22:07:02
6386965 hittadinslakt.se 0 No Rank 2012-03-14 22:07:31
6386966 hittafakta.se 0 No Rank 2012-03-14 22:07:38
6386967 hittafirma.se 0 No Rank 2012-03-14 22:07:39
6386968 hittafritid.se 0 No Rank 2012-03-14 22:07:57
6386969 hittahalsa.se 0 No Rank 2012-03-14 22:08:02
6386970 hittahem.kungsbacka.nrespons.se 0 1751014 2012-03-14 22:07:45
6386971 hittakatten.com 0 9353936 2012-03-14 22:08:26
6386972 hittakuri-cover.com 0 No Rank 2012-03-14 22:08:31
6386973 hittakurs.se 0 8253958 2012-03-14 22:08:44
6386974 hittamassage.nu 0 11284195 2012-03-14 22:09:03
6386975 hittanoter.se 0 No Rank 2012-03-14 22:09:12
6386976 hittarasmus.se 0 No Rank 2012-03-14 22:09:47
6386977 hittarp.se 0 No Rank 2012-03-14 22:09:22
6386978 hittatillbaka.nu 0 10312235 2012-03-14 22:10:06
6386979 hittekatter.ifokus.se 0 71480 2012-03-14 22:10:34
6386980 hittelecom.net 0 No Rank 2012-03-14 22:10:15
6386981 hitterboxes.com 0 No Rank 2012-03-14 22:13:26
6386982 hitterhunter.net 0 No Rank 2012-03-14 01:22:18
6386983 hitterschallenge.com 0 No Rank 2012-03-14 22:10:47
6386984 hittersclub.com 0 No Rank 2012-03-14 22:10:42
6386985 hittersclubofflorida.com 0 No Rank 2012-03-14 22:11:08
6386986 hittfeld-feiert.de 0 No Rank 2012-03-14 22:11:02
6386987 hittfeld-sharks.de 0 No Rank 2012-03-14 22:11:19
6386988 hitthebank.com 0 No Rank 2012-03-14 22:11:24
6386989 hitthebeach.com 0 9978600 2012-03-14 22:11:27
6386990 hitthebeans.com 0 No Rank 2012-03-14 22:11:45
6386991 hitthehills.com 0 18715005 2012-03-14 22:11:50
6386992 hitthelightstrading.com 0 No Rank 2012-03-14 22:12:20
6386993 hittheroad.ch 0 No Rank 2012-03-14 22:12:33
6386994 hittheroad.nl 0 No Rank 2012-03-14 22:12:23
6386995 hitthesales.com 0 No Rank 2012-03-14 22:14:21
6386996 hitthome.com 0 No Rank 2012-03-14 22:14:46
6386997 hitti.com.au 0 No Rank 2012-03-14 22:14:57
6386998 hittiloss.no 0 1859377 2012-03-14 22:15:11
6386999 hitting4contracts.com 0 No Rank 2012-03-14 22:15:28